Simultaneous Nadir Overpasses (SNOs) Predictions

Prediction of SNOs over PacNW region [( 10.00, 139.50) to ( 22.70, 165.60)] between AQUA and NPP Satellites:

Table of predicted SNOs over PacNW region for the next 30.0 days since TLE Epoch: 2/27/2021
Index Date (AQUA) Time (AQUA) AQUA Lat,Lon Date (NPP) Time (NPP) NPP Lat,Lon Distance(km) Time Diff (sec)
1 02/28/2021 15:09:53 22.60, 159.85 02/28/2021 15:10:37 23.19, 157.25 274.73 44
2 03/08/2021 15:59:18 22.62, 147.50 03/08/2021 16:01:19 23.27, 144.58 307.78 121
3 03/16/2021 15:09:50 22.64, 159.88 03/16/2021 15:10:34 23.21, 157.26 275.99 44
4 03/24/2021 15:59:14 22.61, 147.53 03/24/2021 16:01:16 23.24, 144.59 309.66 122
